TAP35M LPPR-LPPT

Flight info

Callsign TAP35M
Flight time 0h 41m
Altitude 37000
Route MANIK DCT ABRIL DCT XAMAX
Aircraft A319/M-SDE3FGHIJ1RWXYZ/LB1

Departure

Time 2026-05-03 22:38
Airport Francisco de Sá Carneiro Airport (LPPR)

Arrival

Time 2026-05-03 23:19
Airport Lisbon Humberto Delgado Airport (LPPT)
Time Latitude Longitude Altitude Speed Heading
2026-05-03 22:13 41.23593 -8.67217 245 ft 0 kts 89°
2026-05-03 22:27 41.23593 -8.67248 245 ft 4 kts 91°
2026-05-03 22:28 41.23595 -8.67284 244 ft 4 kts 100°
2026-05-03 22:28 41.23603 -8.67316 242 ft 4 kts 135°
2026-05-03 22:28 41.23615 -8.67325 242 ft 0 kts 195°
2026-05-03 22:33 41.23603 -8.67329 242 ft 3 kts 195°
2026-05-03 22:33 41.23574 -8.67349 241 ft 6 kts 212°
2026-05-03 22:33 41.23531 -8.67383 240 ft 8 kts 209°
2026-05-03 22:34 41.23467 -8.67383 240 ft 10 kts 168°
2026-05-03 22:34 41.23396 -8.67363 239 ft 11 kts 169°
2026-05-03 22:34 41.23334 -8.67423 240 ft 14 kts 252°
2026-05-03 22:34 41.23321 -8.67512 237 ft 0 kts 257°
2026-05-03 22:36 41.23319 -8.67519 239 ft 2 kts 257°
2026-05-03 22:36 41.23316 -8.67540 239 ft 3 kts 257°
2026-05-03 22:36 41.23308 -8.67585 235 ft 7 kts 257°
2026-05-03 22:37 41.23296 -8.67653 236 ft 8 kts 257°
2026-05-03 22:37 41.23309 -8.67721 238 ft 8 kts 315°
2026-05-03 22:37 41.23371 -8.67748 238 ft 11 kts 348°
2026-05-03 22:37 41.23541 -8.67793 236 ft 60 kts 349°
2026-05-03 22:38 41.24197 -8.67970 216 ft 132 kts 348°
2026-05-03 22:38 41.25237 -8.68282 498 ft 161 kts 345°
2026-05-03 22:38 41.26315 -8.68663 1269 ft 160 kts 347°
2026-05-03 22:38 41.27444 -8.68958 1871 ft 175 kts 348°
2026-05-03 22:39 41.28720 -8.69263 2274 ft 198 kts 348°
2026-05-03 22:39 41.30171 -8.69610 2741 ft 224 kts 348°
2026-05-03 22:39 41.31788 -8.70005 3350 ft 246 kts 348°
2026-05-03 22:39 41.33507 -8.70436 4291 ft 255 kts 348°
2026-05-03 22:40 41.35265 -8.70884 5340 ft 259 kts 347°
2026-05-03 22:40 41.37050 -8.71343 6363 ft 264 kts 347°
2026-05-03 22:40 41.38856 -8.71879 7312 ft 268 kts 339°
2026-05-03 22:40 41.40430 -8.73172 8271 ft 269 kts 314°
2026-05-03 22:41 41.41441 -8.75264 9262 ft 272 kts 289°
2026-05-03 22:41 41.41684 -8.77762 10199 ft 277 kts 265°
2026-05-03 22:41 41.41155 -8.80321 10655 ft 301 kts 244°
2026-05-03 22:41 41.39834 -8.82624 11001 ft 327 kts 222°
2026-05-03 22:42 41.37834 -8.84176 11683 ft 341 kts 201°
2026-05-03 22:42 41.35474 -8.84649 12508 ft 350 kts 179°
2026-05-03 22:42 41.33052 -8.84096 13368 ft 355 kts 171°
2026-05-03 22:42 41.30625 -8.83442 14194 ft 358 kts 170°
2026-05-03 22:43 41.28187 -8.82715 14941 ft 361 kts 170°
2026-05-03 22:43 41.25728 -8.81978 15678 ft 364 kts 170°
2026-05-03 22:43 41.23241 -8.81257 16409 ft 368 kts 171°
2026-05-03 22:43 41.20727 -8.80556 17137 ft 370 kts 172°
2026-05-03 22:44 41.18191 -8.79873 17871 ft 373 kts 172°
2026-05-03 22:44 41.15630 -8.79199 18559 ft 377 kts 172°
2026-05-03 22:44 41.13049 -8.78522 19187 ft 380 kts 172°
2026-05-03 22:44 41.10448 -8.77837 19831 ft 383 kts 172°
2026-05-03 22:45 41.07828 -8.77146 20475 ft 386 kts 172°
2026-05-03 22:45 41.05198 -8.76364 21120 ft 391 kts 167°
2026-05-03 22:45 41.02589 -8.75299 21741 ft 394 kts 167°
2026-05-03 22:45 40.99963 -8.74216 22345 ft 396 kts 167°
2026-05-03 22:46 40.97357 -8.73142 22893 ft 399 kts 167°
2026-05-03 22:46 40.94705 -8.72051 23049 ft 400 kts 167°
2026-05-03 22:46 40.92029 -8.70951 23072 ft 405 kts 168°
2026-05-03 22:46 40.89336 -8.69849 23074 ft 405 kts 168°
2026-05-03 22:47 40.86645 -8.68745 23076 ft 405 kts 168°
2026-05-03 22:47 40.83952 -8.67641 23076 ft 405 kts 168°
2026-05-03 22:47 40.81261 -8.66538 23075 ft 405 kts 168°
2026-05-03 22:47 40.78568 -8.65437 23073 ft 405 kts 168°
2026-05-03 22:48 40.75874 -8.64338 23076 ft 405 kts 168°
2026-05-03 22:48 40.73182 -8.63240 23075 ft 405 kts 168°
2026-05-03 22:48 40.70487 -8.62148 23076 ft 404 kts 169°
2026-05-03 22:48 40.67755 -8.61427 23076 ft 398 kts 179°
2026-05-03 22:49 40.65003 -8.61097 23075 ft 397 kts 180°
2026-05-03 22:49 40.62256 -8.60773 23074 ft 397 kts 180°
2026-05-03 22:49 40.59508 -8.60444 23072 ft 397 kts 180°
2026-05-03 22:49 40.56758 -8.60110 23050 ft 397 kts 180°
2026-05-03 22:50 40.54008 -8.59775 23050 ft 397 kts 180°
2026-05-03 22:50 40.51258 -8.59440 23052 ft 397 kts 180°
2026-05-03 22:50 40.48507 -8.59107 23054 ft 397 kts 180°
2026-05-03 22:50 40.45760 -8.58774 23055 ft 397 kts 180°
2026-05-03 22:51 40.43001 -8.58441 23063 ft 398 kts 180°
2026-05-03 22:51 40.40247 -8.58104 23067 ft 398 kts 180°
2026-05-03 22:51 40.37491 -8.57766 23070 ft 398 kts 180°
2026-05-03 22:51 40.34735 -8.57430 23073 ft 398 kts 180°
2026-05-03 22:52 40.31982 -8.57097 23077 ft 398 kts 180°
2026-05-03 22:52 40.29225 -8.56767 23077 ft 398 kts 180°
2026-05-03 22:52 40.26473 -8.56437 23083 ft 397 kts 180°
2026-05-03 22:52 40.23717 -8.56106 23080 ft 397 kts 180°
2026-05-03 22:53 40.20963 -8.55775 23078 ft 397 kts 180°
2026-05-03 22:53 40.18210 -8.55439 23080 ft 397 kts 180°
2026-05-03 22:53 40.15458 -8.55105 23058 ft 397 kts 180°
2026-05-03 22:53 40.12704 -8.54774 23059 ft 398 kts 180°
2026-05-03 22:54 40.09950 -8.54445 23067 ft 398 kts 180°
2026-05-03 22:54 40.07193 -8.54116 23063 ft 398 kts 180°
2026-05-03 22:54 40.04437 -8.53783 23067 ft 398 kts 180°
2026-05-03 22:54 40.01678 -8.53458 23069 ft 398 kts 181°
2026-05-03 22:55 39.98923 -8.53188 23069 ft 397 kts 181°
2026-05-03 22:55 39.96189 -8.53255 23072 ft 389 kts 194°
2026-05-03 22:55 39.93640 -8.54277 23038 ft 380 kts 210°
2026-05-03 22:55 39.91351 -8.55970 23040 ft 378 kts 214°
2026-05-03 22:56 39.89084 -8.57718 23043 ft 379 kts 214°
2026-05-03 22:56 39.86819 -8.59466 23046 ft 379 kts 214°
2026-05-03 22:56 39.84551 -8.61213 23050 ft 379 kts 214°
2026-05-03 22:56 39.82284 -8.62955 23049 ft 379 kts 214°
2026-05-03 22:57 39.80015 -8.64697 23048 ft 379 kts 214°
2026-05-03 22:57 39.77744 -8.66437 23049 ft 379 kts 214°
2026-05-03 22:57 39.75474 -8.68177 23051 ft 379 kts 214°
2026-05-03 22:57 39.73202 -8.69917 23052 ft 379 kts 214°
2026-05-03 22:58 39.70928 -8.71657 23055 ft 379 kts 214°
2026-05-03 22:58 39.68657 -8.73393 23041 ft 379 kts 214°
2026-05-03 22:58 39.66387 -8.75129 23045 ft 379 kts 214°
2026-05-03 22:58 39.64110 -8.76865 23051 ft 380 kts 214°
2026-05-03 22:59 39.61834 -8.78598 23058 ft 379 kts 214°
2026-05-03 22:59 39.59557 -8.80331 23060 ft 380 kts 214°
2026-05-03 22:59 39.57279 -8.82066 23067 ft 380 kts 214°
2026-05-03 22:59 39.55002 -8.83802 23072 ft 379 kts 214°
2026-05-03 23:00 39.52751 -8.85520 23102 ft 386 kts 214°
2026-05-03 23:00 39.50391 -8.87325 23092 ft 402 kts 214°
2026-05-03 23:00 39.47944 -8.89191 23094 ft 415 kts 213°
2026-05-03 23:00 39.45423 -8.91107 23084 ft 426 kts 214°
2026-05-03 23:01 39.42837 -8.93064 23099 ft 435 kts 214°
2026-05-03 23:01 39.40199 -8.95059 23094 ft 444 kts 213°
2026-05-03 23:01 39.37509 -8.97092 23095 ft 451 kts 213°
2026-05-03 23:01 39.34795 -8.99145 23378 ft 448 kts 213°
2026-05-03 23:02 39.32127 -9.01157 23961 ft 441 kts 214°
2026-05-03 23:02 39.29493 -9.03139 24506 ft 436 kts 214°
2026-05-03 23:02 39.26894 -9.05090 25030 ft 426 kts 214°
2026-05-03 23:02 39.24407 -9.06944 25273 ft 400 kts 214°
2026-05-03 23:03 39.22803 -9.08139 25194 ft 388 kts 214°
2026-05-03 23:03 39.20528 -9.09845 25041 ft 370 kts 215°
2026-05-03 23:03 39.18326 -9.11501 24587 ft 364 kts 215°
2026-05-03 23:03 39.16178 -9.13124 24029 ft 362 kts 215°
2026-05-03 23:04 39.13979 -9.14787 23432 ft 359 kts 215°
2026-05-03 23:04 39.11835 -9.16401 22520 ft 355 kts 214°
2026-05-03 23:04 39.09739 -9.17973 21666 ft 352 kts 214°
2026-05-03 23:04 39.07637 -9.19548 20840 ft 348 kts 214°
2026-05-03 23:05 39.05530 -9.21127 20002 ft 344 kts 214°
2026-05-03 23:05 39.03471 -9.22669 19184 ft 341 kts 214°
2026-05-03 23:05 39.01429 -9.24198 18411 ft 338 kts 214°
2026-05-03 23:05 38.99433 -9.25690 17528 ft 335 kts 214°
2026-05-03 23:06 38.97426 -9.27189 16637 ft 332 kts 214°
2026-05-03 23:06 38.95435 -9.28673 15811 ft 330 kts 213°
2026-05-03 23:06 38.93474 -9.30130 15286 ft 320 kts 213°
2026-05-03 23:06 38.91581 -9.31536 14831 ft 309 kts 213°
2026-05-03 23:07 38.89752 -9.32895 14395 ft 300 kts 213°
2026-05-03 23:07 38.87944 -9.34241 13961 ft 300 kts 213°
2026-05-03 23:07 38.86141 -9.35586 13487 ft 300 kts 213°
2026-05-03 23:07 38.84334 -9.36930 13023 ft 300 kts 213°
2026-05-03 23:08 38.82526 -9.38271 12568 ft 300 kts 213°
2026-05-03 23:08 38.80722 -9.39611 12163 ft 299 kts 213°
2026-05-03 23:08 38.78956 -9.40921 12030 ft 288 kts 213°
2026-05-03 23:08 38.77247 -9.42187 11606 ft 281 kts 213°
2026-05-03 23:09 38.75562 -9.43433 11001 ft 279 kts 213°
2026-05-03 23:09 38.73884 -9.44674 10520 ft 277 kts 213°
2026-05-03 23:09 38.72211 -9.45916 10422 ft 279 kts 213°
2026-05-03 23:09 38.70527 -9.47167 10304 ft 281 kts 213°
2026-05-03 23:10 38.68835 -9.48422 10182 ft 281 kts 213°
2026-05-03 23:10 38.67140 -9.49675 9999 ft 282 kts 213°
2026-05-03 23:10 38.65428 -9.50938 9200 ft 285 kts 213°
2026-05-03 23:10 38.63730 -9.52188 8668 ft 278 kts 213°
2026-05-03 23:11 38.62053 -9.53375 8054 ft 277 kts 206°
2026-05-03 23:11 38.60167 -9.53872 7481 ft 280 kts 181°
2026-05-03 23:11 38.58273 -9.53330 6973 ft 283 kts 156°
2026-05-03 23:11 38.56716 -9.51803 6500 ft 284 kts 129°
2026-05-03 23:12 38.55809 -9.49577 6024 ft 285 kts 103°
2026-05-03 23:12 38.55709 -9.47089 5673 ft 278 kts 81°
2026-05-03 23:12 38.55904 -9.44620 5612 ft 281 kts 83°
2026-05-03 23:12 38.56078 -9.42129 5548 ft 282 kts 84°
2026-05-03 23:13 38.56241 -9.39633 5481 ft 281 kts 84°
2026-05-03 23:13 38.56399 -9.37153 5392 ft 276 kts 84°
2026-05-03 23:13 38.56550 -9.34745 5301 ft 268 kts 84°
2026-05-03 23:13 38.56696 -9.32417 5209 ft 260 kts 84°
2026-05-03 23:14 38.56846 -9.30122 5035 ft 260 kts 83°
2026-05-03 23:14 38.57060 -9.27868 4683 ft 249 kts 73°
2026-05-03 23:14 38.57703 -9.25899 4420 ft 232 kts 54°
2026-05-03 23:14 38.58702 -9.24368 4170 ft 218 kts 37°
2026-05-03 23:15 38.59929 -9.23313 3912 ft 211 kts 22°
2026-05-03 23:15 38.61271 -9.22589 3639 ft 209 kts 19°
2026-05-03 23:15 38.62611 -9.21876 3371 ft 208 kts 19°
2026-05-03 23:15 38.63929 -9.21173 3084 ft 201 kts 19°
2026-05-03 23:16 38.65186 -9.20502 2844 ft 189 kts 18°
2026-05-03 23:16 38.66368 -9.19872 2565 ft 179 kts 19°
2026-05-03 23:16 38.67479 -9.19280 2325 ft 168 kts 18°
2026-05-03 23:16 38.68535 -9.18717 2094 ft 161 kts 18°
2026-05-03 23:17 38.69544 -9.18179 1882 ft 153 kts 18°
2026-05-03 23:17 38.70489 -9.17674 1680 ft 142 kts 18°
2026-05-03 23:17 38.71373 -9.17203 1487 ft 135 kts 18°
2026-05-03 23:17 38.72224 -9.16750 1316 ft 130 kts 18°
2026-05-03 23:18 38.73057 -9.16303 1146 ft 131 kts 19°
2026-05-03 23:18 38.73899 -9.15843 953 ft 132 kts 19°
2026-05-03 23:18 38.74752 -9.15394 747 ft 133 kts 19°
2026-05-03 23:18 38.75604 -9.14941 589 ft 133 kts 19°
2026-05-03 23:19 38.76464 -9.14486 420 ft 134 kts 20°
2026-05-03 23:19 38.77289 -9.14057 358 ft 114 kts 23°
2026-05-03 23:19 38.77860 -9.13745 366 ft 66 kts 22°
2026-05-03 23:19 38.78210 -9.13553 368 ft 38 kts 34°
2026-05-03 23:20 38.78357 -9.13364 363 ft 13 kts 48°
2026-05-03 23:20 38.78367 -9.13279 364 ft 8 kts 128°
2026-05-03 23:20 38.78304 -9.13273 359 ft 11 kts 202°
2026-05-03 23:20 38.78229 -9.13311 358 ft 12 kts 201°
2026-05-03 23:21 38.78145 -9.13352 360 ft 14 kts 200°
2026-05-03 23:21 38.78050 -9.13400 360 ft 15 kts 201°
2026-05-03 23:21 38.77936 -9.13394 352 ft 19 kts 168°
2026-05-03 23:21 38.77792 -9.13352 346 ft 23 kts 167°
2026-05-03 23:22 38.77438 -9.13282 336 ft 26 kts 169°
2026-05-03 23:22 38.77261 -9.13242 338 ft 26 kts 169°
2026-05-03 23:22 38.77126 -9.13206 338 ft 9 kts 168°
2026-05-03 23:23 38.77103 -9.13174 335 ft 6 kts 85°
2026-05-03 23:23 38.77111 -9.13135 337 ft 3 kts 76°
2026-05-03 23:23 38.77115 -9.13118 334 ft 2 kts 76°
2026-05-03 23:23 38.77116 -9.13113 337 ft 0 kts 76°